CAPE
2148 2529 2604 1803 1413 860 696 309 105 427 354 449 481 261 262 292 271 348 418 302 315 481 510 474 524 583 367 314 309 170 99 65 54 0 4 3 0 1 14 39 19 0 0
2247 2482 2167 1353 315 721 13 103 256 172 253 334 342 293 299 272 360 460 440 191 445 495 466 615 596 466 629 594 574 291 230 232 129 92 134 37 76 64 87 146 144 13 0
2124 1876 1667 1088 452 207 251 81 174 201 130 179 177 266 205 266 518 658 448 410 534 416 477 531 579 546 777 520 348 188 142 155 168 101 74 41 67 113 136 229 207 112 24
1868 2014 1954 1376 818 485 18 25 0 19 22 151 84 196 349 479 568 469 243 444 651 481 435 560 613 606 566 403 312 258 219 195 145 137 95 67 76 134 131 158 96 45 22
2281 2131 1729 1138 707 273 112 23 0 0 0 6 33 91 177 65 149 267 360 634 908 820 631 704 717 546 197 113 104 129 191 171 115 96 123 111 94 94 113 129 93 71 108
2491 2137 1723 1174 539 315 245 187 27 0 0 68 21 62 118 100 45 0 174 707 933 902 778 733 707 95 41 0 2 23 68 101 114 158 174 176 257 150 110 76 31 10 11
2265 2058 1653 1110 549 511 326 120 58 0 0 38 89 174 295 539 104 8 14 480 810 911 893 713 550 118 10 95 7 0 9 2 15 108 57 66 113 70 52 26 14 20 18
2246 2044 1586 952 772 559 605 271 140 121 0 8 176 273 402 666 199 90 1 233 673 324 341 401 329 244 125 8 23 50 61 38 23 9 14 7 3 2 9 17 25 19 11
2203 2051 1448 993 909 646 639 268 67 129 165 485 193 215 760 793 34 64 23 347 417 424 378 211 126 113 0 0 0 14 23 25 1 0 0 0 0 0 3 18 10 15 14
2097 1975 1483 1165 1004 825 365 263 415 492 375 211 423 578 425 821 207 21 84 341 399 175 352 106 0 0 0 0 0 9 10 16 0 0 0 0 1 3 0 8 12 11 3
1854 1765 1309 1025 838 367 377 431 492 392 387 158 512 659 1010 432 298 38 1 247 190 224 206 100 20 0 0 0 0 4 2 0 0 0 0 1 3 2 1 4 9 16 15
1265 1199 980 912 862 557 448 442 468 688 732 477 518 461 304 334 3 0 0 0 13 152 170 40 0 0 0 0 0 0 0 0 0 2 3 1 0 0 0 0 0 3 11
943 681 777 874 994 893 834 792 807 695 168 204 189 8 107 169 87 1 1 1 0 4 1 0 0 0 0 0 0 0 0 0 0 1 0 0 0 0 0 0 0 0 9
908 795 847 987 817 714 546 441 191 72 33 44 125 354 308 129 17 0 0 0 0 0 0 0 0 0 0 0 0 0 0 0 0 0 0 0 0 0 0 0 0 3 10
774 703 835 864 664 2 3 8 8 14 10 76 212 299 334 205 40 0 0 0 0 0 0 0 0 0 0 1 0 0 0 0 0 0 0 0 0 0 0 0 0 5 6
400 307 252 67 1 0 0 2 1 0 0 1 0 15 0 0 0 0 0 0 0 0 0 0 1 2 2 0 0 0 0 0 0 0 0 0 0 0 0 0 0 5 7
552 485 85 5 0 0 0 0 0 0 0 0 0 0 0 0 0 0 0 0 0 0 0 0 1 1 0 0 0 0 0 0 0 0 0 0 0 0 0 0 0 0 0
482 0 307 55 2 3 1 0 1 4 0 0 0 0 0 0 0 0 0 0 0 0 0 0 1 0 0 0 0 0 0 0 0 0 0 0 0 0 0 0 0 0 1
48 0 0 6 41 14 2 24 30 20 4 0 0 0 0 0 0 0 0 0 0 0 0 0 0 0 0 0 0 0 0 0 0 0 0 0 0 0 0 0 0 0 0
108 0 9 156 93 105 71 97 81 41 0 0 0 0 0 0 0 0 0 0 0 0 0 0 0 0 0 0 0 0 0 0 0 0 0 0 0 0 0 0 0 0 0
276 245 47 190 179 161 168 157 133 66 27 0 0 0 0 0 0 0 0 0 0 0 0 0 0 0 0 0 0 0 0 0 0 0 0 0 0 0 0 0 0 0 0
81 105 180 261 276 210 225 155 207 209 114 67 50 0 0 0 0 0 0 0 0 0 0 0 0 0 0 0 0 0 0 0 0 0 0 0 0 0 0 0 0 0 0
94 139 274 349 415 32 128 303 270 184 127 113 69 0 0 0 0 0 0 0 0 0 0 0 0 0 0 0 0 0 0 0 0 0 0 0 0 0 0 0 0 0 0
224 281 289 283 284 378 407 385 217 19 86 68 21 0 0 0 3 0 0 0 0 0 0 0 0 0 0 0 0 0 0 0 0 0 0 0 0 0 0 0 0 0 0
92 165 212 248 289 341 174 131 80 116 82 67 47 27 29 26 8 0 0 0 0 0 0 0 0 0 0 0 0 0 0 0 0 0 0 0 0 0 0 0 0 0 0
0 21 13 0 1 26 62 61 62 73 63 60 53 39 25 29 43 28 0 0 0 0 0 0 0 0 0 0 0 0 0 0 0 0 0 0 0 0 0 0 0 0 0
CIN
-201 -150 -112 -171 -206 -299 -302 -343 -358 -317 -284 -229 -179 -171 -134 -100 -82 -40 -13 -7 -4 -0 -0 -1 -0 -1 -13 -58 -73 -110 -0 -3 -0 -0 -0 -0 -0 -0 -16 -6 -10 -0 -0
-225 -172 -190 -269 -505 -317 -649 -449 -324 -283 -337 -228 -189 -153 -113 -95 -36 -21 -6 -14 -1 -1 -4 -0 -2 -4 -5 -10 -34 -54 -85 -54 -0 -0 -50 -1 -0 -9 -15 -12 -16 -111 -0
-218 -256 -261 -351 -480 -572 -427 -396 -262 -251 -214 -249 -211 -151 -139 -85 -37 -19 -23 -10 -3 -10 -10 -9 -5 -8 -2 -20 -35 -72 -0 -45 -0 -0 -0 -0 -4 -21 -6 -4 -6 -20 -105
-256 -246 -229 -326 -410 -391 -583 -511 -0 -196 -272 -94 -198 -182 -93 -54 -58 -29 -45 -20 -11 -13 -23 -16 -9 -10 -9 -14 -7 -15 -45 -8 -0 -0 -0 -0 -81 -15 -28 -8 -38 -72 -0
-252 -239 -280 -296 -321 -409 -477 -485 -0 -0 -0 -158 -209 -166 -169 -176 -68 -64 -39 -14 -6 -11 -12 -16 -10 -26 -63 -64 -17 -13 -29 -6 -0 -0 -5 -52 -25 -36 -32 -52 -62 -79 -68
-210 -216 -223 -263 -397 -402 -372 -320 -419 -0 -0 -44 -113 -142 -134 -163 -147 -0 -109 -16 -11 -16 -13 -13 -10 -84 -98 -0 -71 -115 -65 -13 -2 -5 -9 -5 -0 -3 -19 -72 -157 -0 -0
-221 -199 -224 -285 -381 -342 -332 -328 -318 -0 -0 -157 -67 -78 -91 -53 -132 -185 -247 -43 -26 -13 -17 -13 -17 -33 -27 -44 -15 -0 -17 -86 -41 -0 -0 -22 -52 -30 -101 -0 -0 -0 -0
-211 -202 -224 -314 -328 -310 -235 -271 -219 -178 -0 -276 -26 -62 -63 -42 -121 -160 -188 -101 -28 -62 -50 -34 -32 -38 -43 -23 -47 -33 -24 -22 -10 -8 -4 -1 -0 -0 -0 -0 -0 -0 -0
-206 -188 -229 -263 -232 -269 -245 -295 -299 -151 -58 -6 -14 -70 -17 -30 -169 -179 -213 -88 -39 -24 -23 -52 -62 -53 -0 -0 -0 -31 -23 -3 -0 -0 -0 -0 -0 -0 -0 -0 -0 -0 -0
-222 -207 -227 -250 -233 -216 -266 -262 -130 -30 -34 -67 -8 -32 -78 -35 -148 -395 -249 -105 -55 -54 -21 -73 -0 -0 -0 -0 -21 -14 -10 -6 -0 -0 -0 -0 -0 -0 -2 -0 -0 -0 -0
-244 -213 -265 -290 -253 -373 -277 -177 -85 -56 -49 -102 -85 -65 -45 -118 -130 -254 -45 -98 -81 -22 -7 -30 -53 -0 -0 -0 -0 -0 -0 -0 -0 -0 -0 -0 -0 -0 -0 -0 -0 -0 -0
-383 -320 -297 -293 -254 -286 -227 -145 -68 -45 -23 -64 -80 -78 -80 -71 -82 -0 -0 -12 -115 -27 -10 -40 -0 -0 -0 -0 -0 -0 -0 -0 -0 -0 -0 -0 -0 -0 -0 -0 -0 -0 -0
-378 -360 -305 -222 -173 -160 -143 -87 -60 -38 -123 -129 -123 -187 -36 -82 -126 -0 -0 -0 -0 -56 -8 -0 -0 -0 -0 -0 -0 -0 -0 -0 -0 -0 -0 -0 -0 -0 -0 -0 -0 -0 -0
-298 -260 -206 -123 -154 -136 -166 -121 -167 -169 -180 -103 -85 -25 -35 -80 -190 -0 -0 -0 -0 -0 -0 -0 -0 -0 -0 -0 -0 -0 -0 -0 -0 -0 -0 -0 -0 -0 -0 -0 -0 -0 -0
-214 -180 -110 -60 -74 -0 -0 -142 -104 -77 -63 -34 -17 -21 -20 -44 -80 -0 -0 -0 -0 -0 -0 -0 -0 -0 -0 -0 -0 -0 -0 -0 -0 -0 -0 -0 -0 -0 -0 -0 -0 -0 -0
-162 -147 -159 -247 -0 -0 -0 -0 -0 -0 -0 -0 -0 -15 -0 -0 -0 -0 -0 -0 -0 -0 -0 -0 -0 -0 -0 -0 -0 -0 -0 -0 -0 -0 -0 -0 -0 -0 -0 -0 -0 -0 -0
-73 -67 -160 -199 -0 -0 -0 -0 -0 -0 -0 -0 -0 -0 -0 -0 -0 -0 -0 -0 -0 -0 -0 -0 -0 -0 -0 -0 -0 -0 -0 -0 -0 -0 -0 -0 -0 -0 -0 -0 -0 -0 -0
-79 -0 -87 -122 -29 -0 -0 -0 -23 -18 -0 -0 -0 -0 -0 -0 -0 -0 -0 -0 -0 -0 -0 -0 -0 -0 -0 -0 -0 -0 -0 -0 -0 -0 -0 -0 -0 -0 -0 -0 -0 -0 -0
-68 -0 -0 -54 -104 -165 -0 -141 -121 -112 -77 -0 -0 -0 -0 -0 -0 -0 -0 -0 -0 -0 -0 -0 -0 -0 -0 -0 -0 -0 -0 -0 -0 -0 -0 -0 -0 -0 -0 -0 -0 -0 -0
-121 -0 -118 -89 -123 -104 -134 -106 -121 -140 -10 -0 -0 -0 -0 -0 -0 -0 -0 -0 -0 -0 -0 -0 -0 -0 -0 -0 -0 -0 -0 -0 -0 -0 -0 -0 -0 -0 -0 -0 -0 -0 -0
-65 -56 -161 -66 -66 -68 -74 -77 -72 -67 -56 -0 -0 -0 -0 -0 -0 -0 -0 -0 -0 -0 -0 -0 -0 -0 -0 -0 -0 -0 -0 -0 -0 -0 -0 -0 -0 -0 -0 -0 -0 -0 -0
-61 -47 -43 -18 -39 -56 -52 -61 -34 -22 -24 -27 -32 -0 -0 -0 -0 -0 -0 -0 -0 -0 -0 -0 -0 -0 -0 -0 -0 -0 -0 -0 -0 -0 -0 -0 -0 -0 -0 -0 -0 -0 -0
-45 -33 -23 -28 -25 -115 -93 -32 -21 -21 -18 -10 -12 -0 -0 -0 -0 -0 -0 -0 -0 -0 -0 -0 -0 -0 -0 -0 -0 -0 -0 -0 -0 -0 -0 -0 -0 -0 -0 -0 -0 -0 -0
-18 -15 -14 -19 -31 -19 -11 -8 -15 -69 -11 -7 -6 -0 -0 -0 -25 -0 -0 -0 -0 -0 -0 -0 -0 -0 -0 -0 -0 -0 -0 -0 -0 -0 -0 -0 -0 -0 -0 -0 -0 -0 -0
-17 -10 -4 -1 -8 -7 -18 -17 -19 -3 -0 -0 -0 -3 -2 -5 -17 -0 -0 -0 -0 -0 -0 -0 -0 -0 -0 -0 -0 -0 -0 -0 -0 -0 -0 -0 -0 -0 -0 -0 -0 -0 -0
-1 -7 -4 -0 -5 -6 -4 -0 -0 -0 -0 -0 -0 -0 -3 -5 -4 -10 -1 -0 -0 -0 -0 -0 -0 -0 -0 -0 -0 -0 -0 -0 -0 -0 -0 -0 -0 -0 -0 -0 -0 -0 -0
Wind_Speed
17 16 15 13 15 12 10 11 7 12 12 11 11 10 9 8 8 7 8 8 8 8 8 9 9 8 7 6 6 7 7 7 10 11 9 8 11 12 10 9 11 11 10
18 16 17 16 13 13 12 12 13 9 10 9 9 9 8 8 8 8 9 8 10 9 9 8 9 6 9 8 7 9 9 9 9 14 13 11 11 11 11 12 11 10 11
17 18 17 17 15 17 13 7 1 5 3 7 6 6 7 9 9 10 9 9 10 9 8 9 10 9 9 8 8 8 8 8 9 10 12 11 10 10 11 12 12 12 11
18 18 16 18 17 10 12 12 14 4 7 8 7 7 7 10 10 10 9 10 10 10 10 10 11 10 10 10 8 9 8 10 9 9 10 11 10 9 9 11 12 10 12
16 17 17 13 12 13 14 14 14 12 13 15 11 9 11 8 9 10 10 11 11 11 10 10 10 10 9 10 7 8 8 9 9 10 10 11 11 9 11 11 13 12 12
15 16 14 14 16 16 17 16 14 11 6 12 13 11 11 7 10 11 11 9 11 11 11 11 8 8 10 10 11 12 10 10 11 10 10 11 13 11 12 11 13 14 15
14 13 14 15 16 17 18 16 15 13 16 17 16 12 11 11 9 8 9 9 10 11 10 10 9 7 6 8 8 8 10 9 9 9 10 10 13 14 14 15 14 14 15
12 12 13 16 17 17 18 17 14 14 16 16 16 12 10 11 10 11 8 8 9 7 9 11 9 10 5 6 7 9 8 6 6 6 8 10 12 13 14 13 13 13 12
10 11 13 15 15 17 18 16 11 11 12 13 10 9 12 11 10 10 8 4 9 11 10 8 8 7 1 3 7 7 8 8 5 9 9 12 15 18 16 10 10 11 12
12 13 14 15 16 16 13 11 10 11 10 8 9 9 13 13 17 10 5 3 8 7 7 6 6 5 1 5 6 6 8 7 8 11 11 12 12 13 11 10 8 9 12
11 11 13 14 12 13 12 9 10 11 11 12 13 12 12 9 5 7 7 5 7 8 7 4 3 3 4 5 4 5 4 8 9 10 11 10 10 10 9 8 10 10 11
11 13 11 13 12 12 13 10 11 12 13 11 9 8 6 6 3 7 6 8 3 7 6 2 2 2 6 5 6 4 4 7 7 8 9 9 9 10 10 11 14 13 13
11 11 12 14 13 14 14 14 10 11 6 5 6 5 7 5 4 5 7 6 5 4 2 3 4 2 6 7 2 2 6 5 7 7 8 9 9 10 13 12 14 15 16
13 12 12 13 13 12 9 9 8 8 6 5 6 4 5 4 4 4 5 5 5 5 5 2 2 3 5 2 3 3 4 5 6 7 8 9 9 9 11 10 11 12 12
10 10 11 7 8 6 6 4 3 2 3 6 6 6 6 6 5 5 3 4 3 2 2 3 3 2 2 3 4 4 4 5 5 6 7 8 10 10 11 11 11 11 10
8 7 6 7 6 6 6 5 13 10 5 5 8 3 6 12 11 8 6 6 6 6 4 3 3 3 4 4 4 3 3 4 5 7 7 8 9 10 11 11 10 11 11
6 6 5 5 5 5 4 4 5 6 11 11 9 9 7 12 9 9 7 9 8 7 4 3 4 4 4 4 3 3 4 5 6 6 7 8 9 10 11 11 10 11 12
4 4 4 4 5 4 4 4 5 6 6 7 6 5 9 9 9 10 10 8 5 3 2 3 4 4 3 2 2 4 4 5 5 6 6 7 8 9 10 10 10 8 11
4 3 2 2 2 4 5 6 5 5 6 7 7 5 6 7 8 7 6 2 2 3 4 4 3 3 1 1 2 3 4 4 5 6 6 7 8 9 10 10 10 10 11
2 3 1 3 4 5 5 6 5 5 6 6 6 6 8 7 6 6 4 3 2 1 2 2 2 1 0 2 3 3 3 3 4 5 6 7 8 8 10 11 10 10 10
3 3 1 2 4 4 4 5 6 6 6 6 6 6 8 7 5 4 3 2 3 3 3 3 2 1 0 1 2 1 2 3 4 5 6 7 8 8 10 10 10 10 9
3 3 3 3 4 5 5 4 5 5 5 6 6 7 7 5 4 4 3 3 3 3 2 2 2 0 1 1 1 1 2 3 4 5 6 7 7 8 9 10 10 10 10
4 4 3 3 3 5 4 4 5 5 5 5 6 7 8 5 4 4 4 4 3 3 3 3 3 1 1 1 1 1 2 3 4 5 6 7 7 8 8 9 10 10 10
3 4 4 4 4 4 5 5 4 3 4 5 5 5 5 6 7 6 4 4 4 4 4 4 2 2 3 3 3 3 2 2 4 4 6 6 7 7 7 7 8 11 9
2 2 3 3 4 4 5 5 6 6 6 5 5 5 5 5 5 6 6 5 5 5 6 5 4 4 5 5 4 5 3 1 7 8 6 6 6 7 7 7 8 8 10
2 2 2 2 2 3 4 5 5 5 5 5 5 5 5 5 5 6 6 7 6 6 7 6 6 6 6 6 5 2 1 3 5 5 7 4 5 5 6 7 9 6 8
Wind_Direction
202 204 203 194 195 205 210 181 231 180 186 191 190 199 202 204 212 216 238 248 239 246 240 236 241 246 258 250 245 244 245 242 267 289 287 262 281 281 289 284 281 285 280
203 201 204 196 192 198 187 203 176 222 175 188 195 203 204 214 222 225 241 248 245 243 247 244 252 247 246 251 250 257 252 243 257 269 291 289 266 279 285 283 282 280 284
202 206 204 201 193 194 197 112 4 156 249 199 195 203 204 226 229 232 235 247 250 249 252 254 261 261 257 258 250 257 256 257 245 259 276 286 289 285 286 283 280 283 278
209 208 206 203 202 180 138 148 125 153 93 280 226 194 216 230 229 238 232 240 249 254 252 255 257 253 258 256 248 251 263 268 268 258 269 280 281 286 283 286 282 279 287
207 208 212 201 191 165 157 149 144 162 131 235 231 217 202 206 236 227 232 242 250 257 259 261 259 249 244 261 269 271 274 268 278 282 276 280 283 298 301 302 293 292 287
205 210 205 190 176 175 167 166 164 163 166 233 244 237 222 213 215 218 236 245 253 259 266 269 264 244 240 243 246 254 273 277 279 286 290 293 300 296 299 299 302 295 295
206 203 195 185 183 179 174 173 174 172 186 209 238 232 228 226 200 215 218 251 261 263 266 277 277 252 235 262 249 239 247 242 256 274 278 282 296 302 307 301 295 289 286
197 195 189 187 188 181 181 176 181 201 203 203 218 214 220 229 192 213 199 245 270 268 267 266 260 267 255 268 285 284 284 285 262 269 288 292 294 301 299 295 291 284 280
190 190 189 195 190 187 188 179 178 194 216 217 210 205 226 237 212 221 195 295 270 272 270 251 240 257 22 228 271 278 288 280 203 220 253 265 270 274 274 288 282 285 286
187 187 189 189 189 191 188 180 176 205 207 184 185 209 214 216 210 189 145 183 260 260 254 235 209 262 134 221 267 277 280 306 318 314 311 305 289 291 278 273 281 278 285
173 179 180 179 185 175 175 179 189 195 185 186 185 196 208 218 177 188 177 199 236 260 248 230 214 177 187 185 251 264 323 329 306 297 302 299 301 303 303 309 298 286 285
154 164 169 172 171 162 167 167 181 192 194 186 189 195 206 213 223 190 218 220 249 246 255 250 185 127 174 182 233 34 353 305 295 298 298 302 311 314 316 318 305 294 283
146 169 171 182 181 174 172 176 176 199 195 212 183 187 205 188 174 110 119 133 195 224 256 53 62 161 194 191 135 15 290 294 296 298 310 312 317 314 308 305 308 303 296
159 174 173 182 177 175 165 176 170 179 186 208 216 172 193 180 153 146 139 165 138 204 181 137 65 76 50 46 258 241 287 290 308 306 311 312 312 315 314 319 312 309 309
160 168 173 175 174 109 68 68 165 121 276 206 195 193 190 177 154 125 143 186 204 115 224 189 209 206 232 262 277 283 281 295 307 320 313 320 319 319 317 322 314 315 307
165 175 164 149 144 145 137 116 54 40 35 7 34 97 86 78 108 123 135 126 118 164 223 247 234 240 256 275 277 289 292 308 329 318 322 323 321 320 322 318 320 323 322
172 170 154 148 154 155 145 149 144 89 71 54 78 92 103 125 123 131 141 151 157 169 240 235 242 230 238 243 269 306 327 338 311 319 325 322 322 320 320 324 327 334 327
145 81 157 161 142 148 142 174 164 160 152 138 59 77 100 123 118 110 114 143 140 189 238 233 233 224 219 249 312 327 327 319 324 326 324 327 326 326 326 331 327 332 327
122 124 162 154 161 162 176 183 175 167 160 150 140 135 108 95 123 146 175 232 247 235 212 211 211 208 180 306 325 319 320 334 329 321 326 330 331 329 331 337 331 329 325
36 62 291 174 155 165 170 168 171 172 165 162 173 169 160 169 182 178 173 170 198 215 192 182 174 186 244 321 327 330 315 317 330 328 332 329 332 329 335 337 342 339 347
228 170 91 169 175 169 170 164 170 177 183 186 185 172 174 198 173 165 146 165 195 188 189 192 170 196 183 321 318 323 327 333 335 331 327 330 331 334 335 340 343 347 360
154 143 169 191 168 165 154 167 184 190 191 187 178 149 173 214 186 161 167 204 195 194 187 185 180 76 344 317 339 312 329 331 341 335 328 327 330 339 338 343 349 351 359
208 191 160 155 167 127 171 187 202 181 188 197 186 174 185 196 195 185 183 205 190 187 171 180 161 168 146 167 192 274 313 354 348 330 324 327 332 349 340 347 354 356 359
167 183 179 156 163 177 188 185 178 197 203 199 199 198 190 198 205 189 194 192 196 188 178 176 182 193 164 200 205 222 245 331 321 313 318 326 331 342 352 354 0 5 7
166 183 199 182 169 194 171 195 201 206 201 209 203 205 211 220 207 194 197 202 199 191 184 182 187 178 197 209 228 239 89 345 295 326 295 322 334 340 359 0 2 11 17
116 122 130 154 190 222 220 211 213 215 222 222 225 234 236 231 226 217 205 206 201 195 188 187 187 193 188 197 213 101 107 269 293 293 298 320 339 1 354 10 5 12 22